Flag for Germany Weather past 2 weeks in Hagen, North Rhine-Westphalia, Germany

Now
64 °F

Clear.


Feels Like: 64 °F
Forecast: 54 / 74 °F
Wind: 3 mph from North

Location: Dortmund / Wickede

Current Time: Jul 31, 2014 at 12:56:40 AM

Latest Report: Jul 30, 2014 at 10:50 PM


Visibility: 10 mi

Pressure: 29.98 "Hg

Humidity: 73%

Dew point: 55 °F

Location of HagenLocation

Historic Weather in Hagen — Graph

°F

Hagen temperature yesterday

Maximum temperature yesterday: 75 °F (at 2:20 PM)
Minimum temperature yesterday: 63 °F (at 5:20 AM)
Average temperature yesterday: 68 °F

Past Weeks' High & Low Weather Summary

 TemperatureHumidityPressure
High90 °F (Jul 19, 1:20 PM)100% (Jul 21, 12:50 PM)30.18 "Hg (Jul 21, 12:50 PM)
Low55 °F (Jul 26, 5:20 AM)22% (Jul 19, 2:50 PM)29.77 "Hg (Jul 20, 5:20 AM)
Average72 °F65%29.97 "Hg
* Reported Jul 15 10:20 PM — Jul 30 10:50 PM, Hagen, Weather by CustomWeather, © 2014

Note: Actual official high and low records may vary slightly from our data, if they occured in-between our weather recording intervals... More about our weather records

Advertising

Hagen weather history for previous 24 hours

 ConditionsComfort  
Time TempWeatherWind HumidityBarometerVisibility
10:50 PM
Jul 30
64 °FClear.3 mph73%29.98 "Hg10 mi
10:20 PM66 °FSunny.3 mph68%29.98 "Hg10 mi
9:50 PM66 °FSunny.3 mph68%29.95 "Hg10 mi
9:20 PM66 °FSunny.2 mph64%29.95 "Hg10 mi
8:50 PM68 °FSunny.3 mph60%29.95 "Hg10 mi
8:20 PM70 °FSunny.3 mph53%29.95 "Hg10 mi
7:50 PM68 °FSunny.5 mph53%29.92 "Hg10 mi
7:20 PM70 °FPassing clouds.6 mph50%29.92 "HgN/A
6:50 PM72 °FPassing clouds.6 mph47%29.92 "HgN/A
6:20 PM72 °FPassing clouds.8 mph57%29.92 "HgN/A
5:50 PM72 °FPassing clouds.8 mph53%29.92 "HgN/A
5:20 PM73 °FPassing clouds.8 mph50%29.92 "HgN/A
4:50 PM75 °FPassing clouds.7 mph47%29.92 "HgN/A
4:20 PM73 °FSunny.6 mph47%29.92 "Hg10 mi
3:50 PM75 °FSunny.6 mph41%29.92 "Hg10 mi
3:20 PM72 °FPassing clouds.9 mph50%29.92 "HgN/A
2:50 PM73 °FPassing clouds.8 mph47%29.92 "HgN/A
2:20 PM75 °FPassing clouds.6 mph50%29.92 "HgN/A
1:50 PM70 °FPassing clouds.7 mph57%29.89 "HgN/A
1:20 PM72 °FPassing clouds.6 mph61%29.92 "HgN/A
12:50 PM68 °FScattered clouds.6 mph69%29.89 "HgN/A
12:20 PM68 °FScattered clouds.8 mph69%29.89 "HgN/A
11:50 AM66 °FPartly sunny.7 mph73%29.89 "HgN/A
11:20 AM66 °FScattered clouds.8 mph73%29.89 "HgN/A
10:50 AM66 °FScattered clouds.6 mph78%29.89 "HgN/A
10:20 AM64 °FPartly sunny.6 mph83%29.89 "HgN/A
9:50 AM64 °FPartly sunny.7 mph88%29.89 "HgN/A
9:20 AM63 °FPartly sunny.6 mph88%29.86 "HgN/A
8:50 AM63 °FPartly sunny.3 mph88%29.86 "HgN/A
8:20 AM63 °FPartly sunny.5 mph88%29.86 "HgN/A
7:50 AM63 °FPartly sunny.5 mph88%29.86 "Hg4 mi
7:20 AM63 °FPartly sunny.5 mph88%29.86 "Hg5 mi
6:50 AM63 °FPartly sunny.5 mph88%29.86 "Hg4 mi
6:20 AM63 °FPartly cloudy.5 mph88%29.83 "Hg4 mi
5:50 AM63 °FFog.5 mph94%29.83 "Hg2 mi
5:20 AM63 °FFog.5 mph94%29.83 "Hg3 mi
Weather by CustomWeather, © 2014

See weather overviewHow to use our weather pages